Temperature
1 2 1 1 1 1 1 1 1 2 1 1 -1 -1 -2 -2 -2 -3 -3 -3 -3 -3 -3 -3 -3 -4 -4 -4 -4 -5 -5 -5 -5 -5 -5 -6 -6 -6 -6 -6 -6 -6 -6 -6
0 1 1 1 1 1 1 1 0 0 0 -1 -1 -2 -2 -3 -3 -4 -4 -4 -4 -4 -4 -4 -4 -4 -5 -5 -5 -5 -5 -5 -6 -6 -6 -6 -6 -6 -6 -7 -7 -7 -7 -7
-0 -0 0 0 -0 -0 -0 -1 -1 -0 -1 -3 -3 -4 -4 -4 -4 -4 -4 -5 -5 -5 -5 -5 -5 -5 -5 -5 -5 -6 -6 -6 -6 -6 -6 -7 -7 -7 -7 -7 -7 -7 -7 -7
-1 -1 0 1 -1 -1 -2 -3 -3 -3 -3 -4 -4 -3 -3 -4 -4 -5 -5 -5 -5 -5 -5 -5 -5 -6 -6 -6 -6 -6 -6 -7 -7 -7 -7 -7 -7 -7 -8 -8 -8 -8 -8 -8
-2 -1 -0 -0 -1 -2 -2 -3 -4 -4 -4 -4 -4 -5 -5 -4 -4 -4 -5 -5 -5 -5 -6 -6 -6 -6 -6 -7 -7 -7 -7 -7 -7 -7 -8 -8 -8 -8 -8 -8 -8 -8 -8 -8
-2 -1 -0 0 -2 -3 -2 -2 -4 -4 -5 -5 -5 -5 -5 -4 -5 -5 -6 -6 -6 -6 -6 -6 -6 -7 -7 -7 -7 -7 -7 -7 -8 -8 -8 -8 -8 -8 -8 -9 -9 -9 -9 -9
-2 -2 -1 -3 -4 -3 -2 -2 -4 -4 -5 -6 -6 -5 -5 -5 -6 -6 -6 -6 -7 -7 -7 -7 -7 -7 -8 -8 -8 -8 -8 -8 -8 -8 -8 -9 -9 -9 -9 -9 -9 -9 -9 -9
-3 -2 -2 -5 -4 -4 -3 -4 -4 -5 -5 -5 -6 -6 -6 -6 -6 -7 -7 -7 -7 -7 -8 -8 -8 -8 -8 -8 -8 -8 -8 -8 -9 -9 -9 -9 -9 -9 -9 -9 -9 -9 -9 -9
-3 -3 -4 -5 -5 -4 -4 -5 -5 -5 -5 -6 -6 -7 -7 -7 -7 -7 -7 -8 -8 -8 -8 -8 -9 -9 -9 -9 -9 -9 -9 -9 -9 -9 -9 -9 -10 -10 -10 -10 -10 -10 -10 -10
-6 -6 -6 -5 -5 -5 -5 -5 -5 -5 -6 -6 -7 -7 -8 -8 -8 -8 -8 -8 -8 -9 -9 -9 -9 -9 -9 -9 -9 -9 -9 -9 -9 -10 -10 -10 -10 -10 -10 -10 -10 -10 -10 -10
-7 -7 -7 -6 -6 -6 -6 -6 -6 -6 -6 -7 -7 -8 -8 -8 -9 -8 -9 -9 -9 -9 -9 -9 -9 -9 -10 -10 -10 -10 -9 -10 -10 -10 -10 -10 -10 -10 -10 -10 -11 -11 -11 -11
-6 -6 -7 -6 -6 -6 -6 -6 -7 -7 -7 -7 -8 -8 -9 -9 -9 -9 -9 -9 -9 -9 -10 -10 -10 -10 -10 -10 -10 -10 -10 -10 -10 -10 -11 -11 -11 -11 -10 -11 -11 -11 -11 -11
-6 -6 -6 -6 -7 -7 -7 -7 -7 -8 -8 -8 -8 -9 -9 -9 -9 -9 -10 -10 -10 -10 -10 -10 -10 -10 -10 -10 -10 -10 -10 -10 -10 -11 -11 -11 -11 -11 -11 -11 -11 -11 -11 -11
-7 -7 -8 -8 -8 -8 -8 -8 -8 -8 -9 -9 -9 -9 -10 -10 -10 -10 -10 -10 -10 -10 -10 -10 -10 -10 -10 -11 -11 -10 -11 -11 -11 -11 -11 -12 -12 -12 -12 -12 -12 -11 -11 -11
-8 -8 -8 -8 -8 -8 -9 -9 -9 -9 -10 -10 -10 -10 -10 -10 -10 -10 -10 -11 -11 -11 -11 -11 -11 -11 -11 -11 -11 -11 -11 -11 -11 -11 -12 -12 -12 -12 -12 -12 -12 -12 -12 -12
-9 -9 -9 -9 -9 -9 -9 -10 -10 -10 -10 -10 -10 -10 -10 -10 -10 -11 -11 -11 -11 -11 -11 -11 -11 -11 -11 -11 -11 -11 -11 -11 -11 -12 -12 -12 -12 -12 -12 -12 -12 -12 -12 -12
-10 -10 -10 -10 -10 -10 -10 -10 -10 -10 -11 -10 -10 -11 -11 -11 -11 -11 -11 -11 -11 -11 -11 -11 -11 -11 -12 -12 -12 -12 -12 -12 -12 -12 -12 -12 -12 -12 -13 -13 -13 -13 -13 -13
-10 -10 -10 -10 -10 -11 -11 -11 -11 -11 -11 -11 -11 -11 -11 -11 -11 -11 -11 -11 -11 -11 -11 -12 -12 -12 -12 -12 -12 -12 -12 -12 -12 -12 -12 -12 -13 -13 -13 -13 -13 -13 -13 -13
-11 -11 -11 -11 -11 -11 -11 -11 -11 -11 -11 -11 -11 -11 -11 -11 -11 -11 -11 -12 -12 -12 -11 -12 -12 -12 -12 -12 -12 -12 -12 -12 -12 -12 -12 -13 -13 -13 -13 -13 -13 -13 -13 -13
-11 -11 -11 -11 -11 -11 -12 -11 -12 -12 -11 -12 -12 -12 -12 -11 -12 -12 -12 -12 -12 -12 -12 -12 -12 -12 -12 -12 -13 -13 -13 -12 -12 -13 -13 -13 -13 -13 -13 -13 -13 -13 -14 -14
-12 -11 -12 -12 -12 -12 -12 -12 -12 -12 -12 -12 -12 -12 -12 -12 -12 -12 -12 -12 -12 -12 -12 -12 -12 -12 -13 -13 -13 -13 -13 -13 -13 -13 -13 -13 -13 -13 -13 -14 -14 -14 -14 -14
-12 -12 -12 -12 -12 -12 -12 -12 -12 -12 -12 -12 -12 -12 -12 -12 -12 -12 -12 -13 -13 -13 -13 -13 -13 -13 -13 -13 -13 -13 -13 -13 -13 -13 -13 -13 -14 -14 -14 -14 -14 -14 -14 -14
-12 -12 -12 -12 -12 -12 -12 -12 -12 -12 -12 -12 -13 -13 -13 -13 -13 -13 -13 -13 -13 -13 -13 -13 -13 -13 -13 -13 -13 -13 -13 -13 -14 -14 -14 -14 -14 -14 -14 -14 -14 -14 -14 -14
-13 -13 -13 -13 -13 -13 -13 -13 -13 -13 -13 -13 -13 -13 -13 -13 -13 -13 -13 -13 -13 -13 -14 -14 -14 -14 -14 -14 -14 -14 -14 -14 -14 -14 -14 -14 -14 -14 -14 -14 -14 -14 -14 -14
-13 -13 -13 -13 -13 -13 -13 -13 -13 -13 -13 -13 -13 -13 -14 -14 -14 -13 -14 -14 -14 -14 -14 -14 -14 -14 -14 -14 -14 -14 -14 -14 -14 -14 -14 -14 -14 -14 -14 -14 -14 -14 -14 -14
-13 -14 -14 -14 -14 -14 -14 -14 -14 -14 -14 -14 -14 -14 -14 -14 -14 -14 -14 -14 -14 -14 -14 -14 -14 -14 -14 -14 -14 -14 -14 -14 -14 -15 -15 -15 -15 -15 -14 -14 -14 -14 -15 -15
-14 -14 -14 -14 -14 -14 -14 -14 -14 -14 -14 -14 -14 -14 -14 -14 -14 -14 -14 -14 -14 -14 -14 -14 -14 -14 -15 -15 -15 -15 -15 -15 -15 -15 -15 -15 -15 -15 -15 -15 -15 -15 -15 -15
Wind_Speed
7 7 5 7 8 8 11 10 10 11 10 9 7 5 5 3 3 3 3 2 2 2 2 1 1 1 2 2 2 2 2 3 3 3 3 3 3 3 3 3 4 4 4 5
5 6 6 8 9 10 11 9 10 9 10 7 4 2 2 2 4 4 3 3 2 2 2 2 2 2 2 2 2 2 2 3 3 3 3 3 3 3 3 3 4 4 5 5
5 4 4 8 8 10 6 5 6 10 9 2 2 3 4 4 4 4 3 3 2 2 3 3 3 2 2 3 2 2 2 3 3 3 3 3 4 3 4 4 4 5 5 6
2 1 7 6 1 5 6 4 4 4 3 3 4 3 2 3 4 2 2 2 2 2 3 3 2 2 2 2 2 2 2 3 3 3 4 4 4 4 5 4 5 5 6 6
2 4 8 4 1 2 4 5 4 5 3 2 1 2 2 1 1 2 3 3 3 2 2 2 2 2 1 2 2 3 3 4 4 4 4 4 5 5 5 5 5 5 6 6
4 4 7 4 2 2 2 4 3 4 4 2 1 2 5 2 1 1 1 1 1 1 1 2 2 2 2 3 3 4 5 4 4 4 5 5 6 6 5 5 5 6 6 6
6 6 7 3 2 1 3 5 2 3 4 4 4 5 3 1 1 1 1 1 1 1 1 2 2 2 3 3 5 5 4 4 4 4 5 5 5 5 4 5 5 5 6 6
4 5 7 1 2 4 4 3 1 2 2 3 2 1 1 1 1 0 0 1 1 1 2 3 2 2 3 5 5 4 3 4 4 4 4 4 4 4 4 4 4 5 5 6
7 6 2 3 3 2 1 2 2 2 2 2 1 2 2 2 1 1 1 1 1 1 3 3 3 2 4 5 4 4 3 4 4 5 4 4 4 4 4 4 4 5 5 5
4 5 3 3 2 2 1 2 2 1 1 1 2 2 2 2 2 2 2 2 1 2 3 4 4 4 4 5 4 3 4 4 4 4 4 4 4 4 4 4 5 5 5 5
5 5 4 3 3 3 2 2 1 1 1 2 2 2 2 2 2 2 2 2 2 2 4 5 4 5 5 4 3 4 4 4 4 4 4 4 4 4 4 5 6 6 5 5
5 4 4 5 3 2 2 2 2 1 1 2 1 2 2 2 2 2 3 3 3 3 4 4 4 5 5 4 3 4 4 4 3 3 4 4 4 5 7 7 9 9 9 8
5 4 3 4 2 1 1 2 2 1 1 2 2 1 2 2 2 2 3 3 4 4 4 4 5 5 5 4 4 4 4 4 3 3 3 4 4 4 5 7 8 8 8 9
3 2 2 3 3 2 1 1 1 1 1 1 1 1 1 2 2 3 4 4 4 4 4 4 4 6 5 4 4 4 4 5 4 3 3 4 4 4 4 5 6 5 7 9
4 2 2 3 2 2 2 1 2 2 2 2 2 1 2 3 4 4 4 4 4 4 4 4 5 6 5 4 4 4 4 3 3 3 3 4 4 4 4 4 4 5 5 6
5 3 2 2 3 3 2 1 2 3 3 3 3 3 3 3 4 4 4 3 3 5 5 5 6 6 5 4 4 4 4 6 4 3 3 3 3 4 4 4 4 4 5 5
3 4 4 4 4 4 3 3 3 4 3 3 4 4 3 3 3 4 4 4 4 5 5 5 6 6 5 4 4 3 3 4 5 4 3 3 4 4 4 4 4 5 5 6
3 4 4 4 4 4 4 4 3 3 4 4 4 3 3 3 4 5 5 5 4 5 5 5 5 5 4 4 4 3 3 3 3 3 3 3 4 3 4 4 4 5 5 6
4 4 4 4 3 3 4 4 4 4 3 3 3 3 4 4 4 5 4 4 5 5 5 5 7 4 4 5 5 3 3 3 3 3 3 5 4 3 4 4 4 5 5 5
5 5 5 4 4 3 4 4 3 3 3 3 3 3 4 4 4 4 4 5 5 4 5 5 5 4 4 4 5 2 2 3 3 3 3 3 4 4 4 4 4 5 5 5
6 5 5 5 5 4 4 4 3 3 4 3 3 4 5 5 4 3 3 5 5 4 4 5 3 3 4 3 3 2 2 3 3 3 3 4 4 4 4 4 5 5 5 5
5 5 5 5 5 5 5 4 3 3 3 3 3 3 4 4 4 4 4 4 4 6 4 3 3 5 5 3 1 2 3 3 3 3 3 4 4 4 5 5 5 5 5 5
5 4 5 5 5 5 5 4 4 3 3 4 4 4 4 4 3 3 4 4 3 6 4 3 5 7 7 3 1 2 2 3 3 3 4 4 4 5 5 5 5 5 5 5
5 5 5 4 4 3 4 5 5 4 4 4 4 4 3 3 3 3 3 5 6 6 4 5 7 7 6 2 2 2 2 3 3 4 4 4 4 4 5 5 5 5 5 6
5 4 3 4 4 4 4 5 5 4 4 3 4 4 3 2 3 3 3 4 6 6 4 5 7 7 4 2 3 3 3 3 4 4 3 4 4 4 5 5 5 5 6 6
4 4 4 4 4 4 3 3 3 4 4 4 4 4 3 3 3 3 3 4 4 6 4 3 4 5 3 3 3 3 3 4 5 4 4 4 5 5 5 5 6 6 6 6
4 4 3 3 4 4 3 3 3 4 4 3 4 4 4 3 3 4 4 4 4 4 4 4 3 3 3 3 4 4 4 4 4 4 5 5 5 5 5 6 6 6 6 7
Wind_Direction
263 270 253 245 240 216 215 220 230 248 246 257 249 243 236 220 187 171 172 178 188 194 209 217 224 221 209 208 210 215 223 243 253 256 256 260 263 267 272 275 281 284 287 286
273 272 272 267 253 234 232 234 241 255 263 275 274 278 256 219 188 189 202 210 216 220 225 227 234 244 243 225 226 214 223 248 264 267 267 265 263 264 270 273 276 278 276 276
261 287 313 267 238 222 216 213 210 233 248 274 291 255 225 205 197 205 216 226 229 240 246 249 242 238 238 239 232 224 243 260 266 265 268 270 274 271 265 265 268 273 273 272
247 320 246 248 198 198 192 225 217 229 260 240 249 262 236 191 185 210 229 237 241 250 271 272 256 252 248 247 235 240 253 260 265 263 268 274 271 267 266 264 262 266 272 271
202 243 271 282 267 173 192 250 227 231 252 287 331 3 290 214 190 216 222 227 231 243 256 274 275 260 265 263 251 254 259 259 260 259 266 270 271 268 268 267 270 267 271 270
196 221 246 260 298 302 133 267 234 203 217 222 105 263 257 248 288 278 242 213 225 258 289 283 287 281 267 268 260 258 262 263 263 260 262 264 266 268 266 266 269 277 280 275
215 233 257 273 289 96 167 265 286 214 212 204 217 235 247 235 250 225 225 242 219 231 266 274 284 288 278 272 264 266 270 271 269 267 265 263 265 264 264 269 274 272 277 278
194 227 254 248 116 181 239 302 283 241 227 225 247 262 242 246 249 255 269 292 244 270 287 291 283 273 283 279 281 281 275 273 271 270 272 278 270 269 263 261 270 272 277 283
202 225 275 199 208 247 278 290 280 260 257 206 236 258 263 272 261 258 255 263 267 264 289 295 284 264 271 284 288 285 277 274 275 278 279 281 271 262 261 256 262 274 275 280
256 269 283 271 292 324 324 288 293 276 233 203 228 245 262 265 273 283 281 276 285 288 291 293 291 286 275 283 285 279 274 277 280 281 285 285 284 272 263 261 262 269 271 278
263 288 319 304 281 284 309 321 322 332 294 235 213 244 250 258 267 271 285 288 282 273 277 284 292 291 293 290 282 278 274 274 281 287 284 288 289 278 278 262 261 269 265 266
249 255 251 275 279 270 276 290 278 289 317 307 235 242 257 264 270 271 278 284 287 285 285 287 290 291 293 290 279 274 278 279 279 283 285 290 297 305 300 300 299 300 300 297
263 283 266 282 313 339 297 297 311 298 264 289 296 267 258 273 278 281 282 278 275 276 280 282 285 287 290 289 283 273 268 273 277 282 286 292 297 302 308 313 314 314 312 310
303 311 306 305 304 321 336 335 353 355 336 318 309 309 296 290 287 276 272 273 278 279 278 276 279 282 285 285 281 279 275 274 279 275 279 284 289 291 292 300 311 314 316 316
333 320 278 306 337 354 9 30 17 342 341 338 336 310 292 281 276 278 281 286 292 286 281 278 277 280 283 278 278 277 277 272 272 276 278 280 286 289 291 294 300 306 313 316
326 346 353 348 333 332 347 348 311 303 308 307 306 296 286 280 281 286 286 280 280 280 280 276 274 279 280 273 278 279 275 284 291 284 282 284 285 288 292 296 299 302 303 306
336 328 328 322 313 310 307 294 281 285 290 288 286 289 294 297 298 294 291 286 278 275 275 275 279 285 282 273 269 273 274 281 292 293 281 281 282 285 288 291 293 296 298 299
295 281 281 274 279 292 302 306 297 289 284 285 292 295 286 280 280 287 295 300 298 292 284 282 283 287 282 276 271 266 266 273 278 277 280 282 286 287 289 290 291 295 300 304
339 331 323 319 308 298 295 299 295 290 291 292 289 281 277 276 278 285 293 294 291 290 292 290 300 301 286 280 285 264 265 273 281 282 282 288 297 295 292 291 292 294 298 304
350 350 343 336 332 321 308 307 304 299 296 292 290 291 293 292 292 292 290 282 271 274 286 295 299 291 283 279 289 269 266 272 277 282 285 283 286 290 292 292 294 295 298 300
341 342 341 337 332 330 323 314 307 303 305 298 284 284 286 290 290 286 289 293 295 295 295 305 310 292 284 287 294 278 270 275 279 278 280 284 289 293 294 295 296 298 299 301
332 334 334 334 334 330 325 319 313 308 310 307 302 299 299 300 301 295 280 279 295 311 319 302 297 297 307 306 282 269 270 273 276 279 280 283 286 289 291 293 293 295 297 298
327 327 328 327 323 318 319 322 321 315 308 302 300 298 295 293 294 297 304 308 309 313 322 300 305 312 318 323 299 282 279 278 279 280 282 284 284 285 288 289 291 293 294 296
328 329 325 324 327 331 329 326 326 322 313 305 304 303 303 310 310 303 301 313 322 320 316 312 319 321 329 338 314 299 292 288 285 283 286 288 288 287 287 289 292 294 294 294
326 324 328 336 338 330 321 324 330 332 334 331 329 327 322 312 305 312 316 315 320 326 324 323 328 333 340 323 311 301 294 287 285 288 285 287 289 291 289 288 289 292 292 290
330 327 325 320 317 317 320 324 328 329 332 332 330 330 335 337 330 321 321 320 317 325 329 323 322 324 320 310 305 302 299 301 306 302 294 292 289 289 289 289 288 287 286 285
332 334 334 333 331 329 327 326 324 322 324 319 320 328 336 337 334 330 327 328 329 328 325 323 321 319 314 311 308 306 303 300 297 295 294 292 290 289 288 285 285 285 284 284
Height
1490 1487 1487 1486 1486 1487 1488 1486 1486 1478 1478 1474 1476 1477 1477 1477 1478 1478 1479 1480 1480 1481 1481 1481 1481 1481 1480 1480 1480 1480 1479 1479 1478 1477 1476 1475 1474 1473 1472 1471 1470 1469 1468 1466
1490 1486 1486 1484 1481 1481 1481 1481 1480 1478 1476 1473 1474 1475 1475 1475 1476 1476 1476 1477 1478 1478 1478 1478 1478 1477 1477 1477 1476 1476 1475 1475 1474 1472 1471 1471 1469 1469 1468 1467 1466 1464 1463 1462
1489 1488 1485 1481 1476 1476 1476 1476 1476 1475 1473 1473 1474 1473 1473 1473 1473 1473 1474 1474 1475 1475 1475 1475 1475 1474 1473 1473 1472 1472 1471 1470 1469 1468 1467 1466 1465 1464 1463 1462 1461 1459 1458 1457
1491 1490 1485 1470 1470 1470 1472 1474 1474 1473 1472 1472 1471 1471 1470 1471 1471 1470 1471 1471 1472 1472 1472 1472 1472 1471 1470 1469 1469 1468 1467 1466 1465 1464 1462 1461 1460 1459 1458 1457 1456 1455 1453 1452
1491 1488 1477 1471 1469 1470 1472 1472 1470 1470 1470 1470 1470 1469 1469 1468 1468 1469 1469 1469 1470 1470 1469 1469 1468 1467 1467 1466 1465 1464 1463 1462 1461 1460 1458 1457 1456 1454 1453 1452 1451 1450 1449 1447
1488 1484 1475 1467 1469 1467 1470 1470 1466 1466 1467 1468 1469 1471 1467 1466 1466 1466 1467 1467 1467 1467 1466 1466 1465 1464 1463 1462 1461 1460 1459 1458 1457 1455 1454 1452 1451 1450 1449 1448 1447 1446 1444 1443
1484 1480 1470 1470 1468 1467 1472 1466 1463 1463 1464 1465 1465 1465 1464 1463 1463 1464 1464 1464 1464 1464 1463 1463 1462 1461 1460 1459 1458 1457 1455 1454 1452 1451 1449 1448 1446 1445 1444 1443 1442 1441 1440 1438
1483 1480 1473 1468 1468 1469 1466 1462 1461 1461 1461 1461 1461 1461 1460 1460 1460 1460 1460 1460 1460 1460 1460 1459 1459 1458 1456 1455 1454 1453 1451 1450 1448 1447 1445 1443 1442 1441 1440 1439 1437 1436 1435 1433
1474 1470 1466 1464 1463 1463 1462 1461 1460 1459 1459 1459 1458 1458 1458 1458 1457 1457 1457 1457 1457 1456 1456 1456 1455 1454 1453 1452 1450 1449 1447 1446 1444 1442 1441 1439 1437 1436 1435 1434 1433 1432 1430 1429
1471 1466 1464 1463 1461 1461 1461 1460 1459 1458 1458 1457 1456 1456 1455 1455 1455 1455 1454 1454 1453 1453 1452 1452 1451 1451 1449 1448 1446 1445 1443 1442 1440 1438 1436 1435 1434 1432 1431 1430 1429 1427 1426 1424
1469 1465 1463 1461 1460 1460 1459 1458 1457 1456 1456 1455 1454 1453 1453 1453 1452 1452 1452 1451 1451 1450 1449 1448 1447 1447 1446 1444 1443 1441 1440 1438 1436 1435 1433 1431 1430 1429 1427 1426 1425 1424 1422 1421
1466 1463 1463 1460 1458 1458 1457 1456 1455 1454 1453 1453 1452 1451 1451 1450 1450 1449 1449 1448 1448 1447 1446 1445 1444 1443 1442 1440 1439 1437 1436 1434 1433 1431 1429 1428 1426 1424 1424 1423 1421 1420 1418 1417
1462 1460 1459 1458 1457 1456 1455 1454 1453 1452 1451 1450 1450 1449 1448 1448 1447 1447 1446 1446 1445 1444 1443 1442 1441 1439 1438 1437 1435 1434 1432 1431 1429 1428 1426 1425 1423 1421 1419 1418 1417 1416 1414 1412
1460 1459 1457 1456 1455 1454 1453 1452 1451 1450 1449 1449 1448 1447 1446 1446 1445 1444 1443 1443 1442 1441 1440 1438 1437 1435 1434 1433 1432 1430 1429 1428 1426 1424 1423 1422 1420 1418 1416 1414 1412 1411 1410 1409
1458 1457 1456 1454 1453 1452 1451 1450 1449 1447 1447 1446 1445 1445 1444 1443 1442 1441 1441 1440 1439 1437 1436 1435 1433 1432 1431 1429 1428 1427 1426 1424 1423 1421 1420 1418 1417 1415 1414 1412 1410 1408 1406 1405
1456 1455 1454 1452 1450 1449 1448 1447 1446 1444 1444 1443 1442 1442 1441 1440 1439 1438 1438 1437 1435 1433 1432 1431 1429 1428 1427 1426 1425 1423 1422 1421 1420 1418 1417 1415 1414 1412 1410 1409 1407 1405 1403 1401
1455 1453 1451 1450 1448 1447 1446 1445 1444 1443 1442 1441 1440 1439 1438 1437 1436 1435 1434 1433 1432 1431 1429 1428 1426 1425 1424 1422 1421 1420 1419 1418 1416 1415 1414 1412 1411 1409 1408 1406 1404 1402 1401 1399
1454 1452 1450 1448 1447 1445 1444 1443 1442 1441 1440 1439 1438 1437 1435 1434 1433 1432 1431 1430 1429 1427 1426 1424 1423 1422 1420 1419 1418 1417 1416 1414 1413 1412 1411 1409 1408 1406 1405 1403 1401 1399 1397 1396
1451 1450 1448 1447 1445 1444 1442 1441 1440 1439 1437 1436 1435 1434 1433 1432 1431 1429 1428 1427 1425 1423 1422 1421 1420 1419 1417 1416 1415 1414 1413 1411 1410 1409 1408 1406 1405 1403 1402 1400 1398 1397 1395 1393
1450 1448 1447 1445 1444 1442 1440 1439 1438 1436 1435 1434 1432 1431 1430 1429 1428 1427 1425 1424 1422 1421 1419 1418 1417 1415 1414 1413 1412 1411 1410 1408 1407 1406 1404 1403 1402 1400 1399 1397 1395 1394 1392 1390
1449 1447 1445 1443 1442 1440 1439 1437 1436 1434 1433 1431 1430 1428 1427 1426 1425 1424 1422 1421 1420 1418 1417 1416 1414 1413 1411 1410 1409 1408 1407 1405 1404 1403 1401 1400 1398 1397 1396 1394 1392 1391 1389 1387
1448 1446 1444 1442 1440 1438 1437 1436 1434 1432 1430 1429 1428 1426 1425 1423 1422 1421 1420 1419 1417 1416 1414 1413 1411 1410 1409 1408 1406 1405 1404 1402 1401 1400 1398 1397 1395 1394 1392 1391 1389 1388 1386 1384
1447 1445 1443 1441 1439 1437 1436 1434 1432 1430 1428 1427 1425 1424 1422 1421 1420 1419 1417 1416 1414 1413 1412 1410 1409 1408 1407 1405 1404 1402 1401 1400 1398 1397 1396 1394 1393 1391 1389 1388 1386 1385 1383 1381
1446 1444 1442 1440 1438 1436 1434 1432 1430 1429 1427 1425 1424 1422 1420 1419 1418 1417 1415 1414 1412 1411 1409 1408 1407 1405 1404 1402 1401 1400 1398 1397 1396 1394 1393 1391 1390 1388 1387 1385 1383 1381 1379 1377
1445 1443 1441 1439 1437 1435 1433 1431 1429 1427 1425 1424 1422 1420 1419 1418 1416 1415 1413 1412 1410 1409 1407 1406 1404 1403 1401 1400 1398 1397 1396 1394 1393 1391 1390 1388 1387 1385 1383 1382 1380 1378 1376 1374
1444 1442 1440 1438 1436 1434 1432 1430 1428 1426 1424 1422 1420 1419 1417 1416 1415 1413 1412 1410 1408 1407 1405 1403 1402 1400 1399 1397 1396 1395 1393 1392 1390 1389 1387 1385 1384 1382 1380 1379 1377 1375 1373 1371
1444 1441 1439 1437 1435 1433 1431 1429 1427 1425 1423 1421 1419 1418 1416 1415 1413 1412 1410 1408 1407 1405 1403 1402 1400 1398 1397 1395 1394 1392 1390 1389 1387 1386 1384 1382 1381 1379 1377 1375 1373 1371 1370 1368